Location: Hastringsfeld
(50.9620°N, 10.4787°E)
Time: 02:57:15
(UTC+00:00)

ATLAS 3B R/B - Pass Details

Date: 29 April 2024
Orbit: 943 x 1251 km, 63.8° (Epoch: 17 May)

Event Time Altitude Azimuth Distance (km) Brightness Sun altitude
Rises 22:43:59 0° 310° (NW) 4,124 6.5 -23.8°
Reaches altitude 10° 22:46:52 10° 316° (NW) 3,187 5.9 -23.9°
Maximum altitude 22:54:19 47° 29° (NNE) 1,614 3.9 -24.0°
Drops below altitude 10° 23:01:49 10° 102° (ESE) 3,221 5.0 -24.1°
Sets 23:04:45 0° 108° (ESE) 4,170 5.6 -24.1°
